Regional Weather Roundup
Issued by NWS

Home | Current Version | Previous Version | Graphics & Text | Print | Product List | Glossary On
Versions: 1 2 3 4 5 6 7 8 9 10 11 12 13 14 15 16 17 18 19 20 21 22 23 24 25 26 27 28 29 30 31 32 33 34 35 36 37 38 39 40 41 42 43 44 45 46 47 48 49 50
000
ASUS43 KLMK 232002
RWRKY
KENTUCKY REGIONAL WEATHER ROUNDUP
NATIONAL WEATHER SERVICE LOUISVILLE KY
300 PM EST TUE JAN 23 2018

NOTE "FAIR" INDICATES FEW OR NO CLOUDS BELOW 12,000 FEET
WITH NO SIGNIFICANT WEATHER AND/OR OBSTRUCTIONS TO VISIBILITY.

KYZ001>023-026-027-061>063-070>075-232100-
WESTERN AND SOUTH CENTRAL KENTUCKY

CITY           SKY/WX    TMP DP  RH WIND       PRES   REMARKS
PADUCAH        CLOUDY    40  29  64 W16       30.07S WCI  31
HENDERSON      CLOUDY    38  31  76 W17G23    30.05R WCI  28
OWENSBORO      CLOUDY    40  32  73 W17       30.04R WCI  31
HOPKINSVILLE   CLOUDY    40  30  65 W13       30.06R WCI  33
BOWLING GREEN  CLOUDY    42  31  64 W12       30.04R
GLASGOW        NOT AVBL
$$

KYZ024-025-028>034-038-045-046-053-232100-
NORTH CENTRAL KENTUCKY

CITY           SKY/WX    TMP DP  RH WIND       PRES   REMARKS
LOUISVILLE/SDF CLOUDY    42  32  67 W16       29.98R
LOUISVILLE/LOU CLOUDY    41  32  70 W16G25    29.98R
FORT KNOX      CLOUDY    39  31  72 W13       30.00R WCI  31
$$

KYZ035>037-039>044-047>052-055>060-089>105-232100-
NORTHEAST KENTUCKY

CITY           SKY/WX    TMP DP  RH WIND       PRES   REMARKS
LEXINGTON      CLOUDY    41  28  60 W14G24    29.95R
COVINGTON      DRIZZLE   38  34  85 SW13G22   29.90R WCI  30
FRANKFORT      CLOUDY    42  29  59 W9G18     29.94R
$$

KYZ054-064>069-076>088-106>120-232100-
SOUTHEAST KENTUCKY

CITY           SKY/WX    TMP DP  RH WIND       PRES   REMARKS
JACKSON        CLOUDY    44  27  51 MISG      29.91R
LONDON         CLOUDY    45  29  53 W17       29.94R
SOMERSET       NOT AVBL
MIDDLESBORO    CLOUDY    48  30  48 NW3       29.94R
MONTICELLO     CLOUDY    45  31  58 W14G26    29.99R
$$




USA.gov is the U.S. government's official web portal to all federal, state and local government web resources and services.